KC5EZZ-2 Weather Reports


Display with metric or nautical units.
time (UTC)temp
F
wind
direction
speed
MPH
gust
MPH
rain 1hr
in
rain 24hr
in
rain mn
in
humidity
%
barometer
mb
20181023113840 54 133 3.0 4.0 0.00 0.00 0.00 76 949.0
20181023113341 54 140 0.0 4.0 0.00 0.00 0.00 75 949.0
20181023112342 55 242 4.0 5.0 0.00 0.00 0.00 74 948.0
20181023111843 55 217 4.0 4.0 0.00 0.00 0.00 73 948.0
20181023111336 55 213 4.0 4.0 0.00 0.00 0.00 73 948.0
20181023104837 55 195 3.0 4.0 0.00 0.00 0.00 73 948.0
20181023103339 55 195 3.0 5.0 0.00 0.00 0.00 73 948.0
20181023101840 55 178 4.0 5.0 0.00 0.00 0.00 73 948.0
20181023101339 55 199 4.0 5.0 0.00 0.00 0.00 73 948.0
20181023100839 55 184 4.0 5.0 0.00 0.00 0.00 73 948.0
20181023100341 55 193 4.0 6.0 0.00 0.00 0.00 73 948.0
20181023095839 55 190 4.0 5.0 0.00 0.00 0.00 72 948.0
20181023093325 55 172 3.0 5.0 0.00 0.00 0.00 70 948.0
20181023092325 55 184 3.0 4.0 0.00 0.00 0.00 70 948.0
20181023090826 55 182 4.0 5.0 0.00 0.00 0.00 70 948.0
20181023085824 55 189 4.0 6.0 0.00 0.00 0.00 69 948.0
20181023085325 55 198 4.0 7.0 0.00 0.00 0.00 69 948.0
20181023084827 55 192 5.0 5.0 0.00 0.00 0.00 69 948.0
20181023082822 55 186 4.0 5.0 0.00 0.00 0.00 70 948.0
20181023081323 54 199 5.0 5.0 0.00 0.00 0.00 72 948.0
20181023080824 54 203 4.0 6.0 0.00 0.00 0.00 73 948.0
20181023080326 54 202 4.0 6.0 0.00 0.00 0.00 73 948.0
20181023073828 55 200 6.0 9.0 0.00 0.00 0.00 73 948.0
20181023073329 55 202 6.0 8.0 0.00 0.00 0.00 74 948.0
20181023072820 55 204 6.0 5.0 0.00 0.00 0.00 76 948.0
20181023072322 55 213 4.0 8.0 0.00 0.00 0.00 78 948.0
20181023071823 55 218 5.0 8.0 0.00 0.00 0.00 79 948.0
20181023071319 55 214 5.0 7.0 0.00 0.00 0.00 80 948.0
20181023064242 55 204 5.0 6.0 0.00 0.00 0.00 80 948.0
20181023052227 56 202 4.0 4.0 0.00 0.00 0.00 77 949.0
20181023044717 56 197 4.0 5.0 0.00 0.00 0.00 75 949.0
20181023044221 56 159 4.0 7.0 0.00 0.00 0.00 75 949.0
20181023043213 56 193 5.0 7.0 0.00 0.00 0.00 76 949.0
20181023041715 56 184 5.0 6.0 0.00 0.00 0.00 77 949.0
20181023035703 56 192 4.0 6.0 0.00 0.00 0.00 80 948.0
20181023030707 55 185 4.0 4.0 0.00 0.00 0.00 79 948.0
20181023021656 56 185 4.0 4.0 0.00 0.00 0.00 74 948.0
20181023015655 56 201 4.0 6.0 0.00 0.00 0.00 73 948.0
20181023015228 56 202 4.0 6.0 0.00 0.00 0.00 72 948.0
20181023015156 56 202 4.0 6.0 0.00 0.00 0.00 72 948.0
20181023013145 57 209 4.0 7.0 0.00 0.00 0.00 70 948.0
20181023004131 58 189 7.0 8.0 0.00 0.00 0.00 66 948.0
20181023003134 58 188 5.0 8.0 0.00 0.00 0.00 64 948.0
20181023001132 59 189 5.0 8.0 0.00 0.00 0.00 62 948.0
20181022230128 61 238 7.0 8.0 0.00 0.00 0.00 60 948.0
20181022225620 61 266 7.0 7.0 0.00 0.00 0.00 60 948.0
20181022224622 61 234 7.0 10.0 0.00 0.00 0.00 59 947.0
20181022222622 62 219 7.0 9.0 0.00 0.00 0.00 57 948.0
20181022214623 63 255 7.0 10.0 0.00 0.00 0.00 51 947.0
20181022214121 63 242 6.0 10.0 0.00 0.00 0.00 51 947.0
20181022211121 64 221 8.0 10.0 0.00 0.00 0.00 47 947.0
20181022210117 64 229 7.0 10.0 0.00 0.00 0.00 46 947.0
20181022204617 64 232 7.0 12.0 0.00 0.00 0.00 46 947.0
20181022202118 65 210 8.0 9.0 0.00 0.00 0.00 43 948.0
20181022201621 65 243 6.0 9.0 0.00 0.00 0.00 44 948.0
20181022201113 65 240 7.0 12.0 0.00 0.00 0.00 44 948.0
20181022200614 64 228 7.0 12.0 0.00 0.00 0.00 44 948.0
20181022200117 64 248 10.0 11.0 0.00 0.00 0.00 44 948.0
20181022193613 65 233 10.0 12.0 0.00 0.00 0.00 42 948.0
20181022185056 66 255 9.0 12.0 0.00 0.00 0.00 40 948.0
20181022182050 66 251 8.0 11.0 0.00 0.00 0.00 43 949.0
20181022175545 66 231 7.0 7.0 0.00 0.00 0.00 45 949.0
20181022172542 65 223 6.0 9.0 0.00 0.00 0.00 47 949.0
20181022171540 65 175 4.0 8.0 0.00 0.00 0.00 48 949.0
20181022143518 58 175 5.0 6.0 0.00 0.00 0.00 79 949.0
20181022134505 54 216 0.0 0.0 0.00 0.00 0.00 89 949.0
20181022132004 53 216 0.0 3.0 0.00 0.00 0.00 88 949.0
20181022120503 52 178 0.0 0.0 0.00 0.00 0.00 82 948.0
20181022120006 53 178 0.0 0.0 0.00 0.00 0.00 82 948.0